Year,Month,Day,Hour,Minute,Value (Times are PST for windgust in km/hr)
2018,09,10,00,00,1.60
2018,09,10,00,10,3.20
2018,09,10,00,11,3.20
2018,09,10,00,12,3.20
2018,09,10,00,13,3.20
2018,09,10,00,17,3.20
2018,09,10,00,18,3.20
2018,09,10,00,19,3.20
2018,09,10,00,20,3.20
2018,09,10,00,21,1.60
2018,09,10,00,23,1.60
2018,09,10,00,24,8.10
2018,09,10,00,25,8.10
2018,09,10,00,26,4.80
2018,09,10,00,27,1.60
2018,09,10,00,28,6.40
2018,09,10,00,29,4.80
2018,09,10,00,30,11.30
2018,09,10,00,31,12.90
2018,09,10,00,32,14.50
2018,09,10,00,33,8.10
2018,09,10,00,34,22.50
2018,09,10,00,35,20.90
2018,09,10,00,36,27.40
2018,09,10,00,37,20.90
2018,09,10,00,38,12.90
2018,09,10,00,39,19.30
2018,09,10,00,40,12.90
2018,09,10,00,41,11.30
2018,09,10,00,42,6.40
2018,09,10,00,43,8.10
2018,09,10,00,44,11.30
2018,09,10,00,45,14.50
2018,09,10,00,46,14.50
2018,09,10,00,47,20.90
2018,09,10,00,48,22.50
2018,09,10,00,49,11.30
2018,09,10,00,50,12.90
2018,09,10,00,51,17.70
2018,09,10,00,52,17.70
2018,09,10,00,53,16.10
2018,09,10,00,54,16.10
2018,09,10,00,55,16.10
2018,09,10,00,56,14.50
2018,09,10,00,57,12.90
2018,09,10,00,58,11.30
2018,09,10,00,59,8.10
2018,09,10,01,00,9.60
2018,09,10,01,01,11.30
2018,09,10,01,02,11.30
2018,09,10,01,03,9.60
2018,09,10,01,04,11.30
2018,09,10,01,05,17.70
2018,09,10,01,06,16.10
2018,09,10,01,07,8.10
2018,09,10,01,08,12.90
2018,09,10,01,09,14.50
2018,09,10,01,10,11.30
2018,09,10,01,11,11.30
2018,09,10,01,12,12.90
2018,09,10,01,13,12.90
2018,09,10,01,14,6.40
2018,09,10,01,15,16.10
2018,09,10,01,16,17.70
2018,09,10,01,17,12.90
2018,09,10,01,18,14.50
2018,09,10,01,19,11.30
2018,09,10,01,20,12.90
2018,09,10,01,21,8.10
2018,09,10,01,22,4.80
2018,09,10,01,23,6.40
2018,09,10,01,24,14.50
2018,09,10,01,25,11.30
2018,09,10,01,26,11.30
2018,09,10,01,27,8.10
2018,09,10,01,28,4.80
2018,09,10,01,29,9.60
2018,09,10,01,30,8.10
2018,09,10,01,31,9.60
2018,09,10,01,32,8.10
2018,09,10,01,33,14.50
2018,09,10,01,34,16.10
2018,09,10,01,35,17.70
2018,09,10,01,36,19.30
2018,09,10,01,37,14.50
2018,09,10,01,38,12.90
2018,09,10,01,39,9.60
2018,09,10,01,40,17.70
2018,09,10,01,41,19.30
2018,09,10,01,42,19.30
2018,09,10,01,43,17.70
2018,09,10,01,44,14.50
2018,09,10,01,45,14.50
2018,09,10,01,46,16.10
2018,09,10,01,47,12.90
2018,09,10,01,48,11.30
2018,09,10,01,49,14.50
2018,09,10,01,50,14.50
2018,09,10,01,51,11.30
2018,09,10,01,52,14.50
2018,09,10,01,53,12.90
2018,09,10,01,54,14.50
2018,09,10,01,55,9.60
2018,09,10,01,56,6.40
2018,09,10,01,57,11.30
2018,09,10,01,58,9.60
2018,09,10,01,59,9.60
2018,09,10,02,00,3.20
2018,09,10,02,01,14.50
2018,09,10,02,02,9.60
2018,09,10,02,03,16.10
2018,09,10,02,04,8.10
2018,09,10,02,05,12.90
2018,09,10,02,06,14.50
2018,09,10,02,07,11.30
2018,09,10,02,08,8.10
2018,09,10,02,09,4.80
2018,09,10,02,10,11.30
2018,09,10,02,11,6.40
2018,09,10,02,12,6.40
2018,09,10,02,13,8.10
2018,09,10,02,14,12.90
2018,09,10,02,15,9.60
2018,09,10,02,16,9.60
2018,09,10,02,17,8.10
2018,09,10,02,18,6.40
2018,09,10,02,19,9.60
2018,09,10,02,20,8.10
2018,09,10,02,21,6.40
2018,09,10,02,22,11.30
2018,09,10,02,23,9.60
2018,09,10,02,24,17.70
2018,09,10,02,25,14.50
2018,09,10,02,26,9.60
2018,09,10,02,27,8.10
2018,09,10,02,28,8.10
2018,09,10,02,29,6.40
2018,09,10,02,30,6.40
2018,09,10,02,31,4.80
2018,09,10,02,32,8.10
2018,09,10,02,33,11.30
2018,09,10,02,34,16.10
2018,09,10,02,35,16.10
2018,09,10,02,36,9.60
2018,09,10,02,37,9.60
2018,09,10,02,38,14.50
2018,09,10,02,39,11.30
2018,09,10,02,40,14.50
2018,09,10,02,41,14.50
2018,09,10,02,42,14.50
2018,09,10,02,43,11.30
2018,09,10,02,44,9.60
2018,09,10,02,45,4.80
2018,09,10,02,46,6.40
2018,09,10,02,47,20.90
2018,09,10,02,48,16.10
2018,09,10,02,49,14.50
2018,09,10,02,50,14.50
2018,09,10,02,51,6.40
2018,09,10,02,52,9.60
2018,09,10,02,53,9.60
2018,09,10,02,54,14.50
2018,09,10,02,55,9.60
2018,09,10,02,56,3.20
2018,09,10,02,57,6.40
2018,09,10,02,58,12.90
2018,09,10,02,59,9.60
2018,09,10,03,00,4.80
2018,09,10,03,01,14.50
2018,09,10,03,02,17.70
2018,09,10,03,03,11.30
2018,09,10,03,04,14.50
2018,09,10,03,05,17.70
2018,09,10,03,06,16.10
2018,09,10,03,07,9.60
2018,09,10,03,08,14.50
2018,09,10,03,09,8.10
2018,09,10,03,10,8.10
2018,09,10,03,11,9.60
2018,09,10,03,12,11.30
2018,09,10,03,13,9.60
2018,09,10,03,14,8.10
2018,09,10,03,15,6.40
2018,09,10,03,16,6.40
2018,09,10,03,17,6.40
2018,09,10,03,18,1.60
2018,09,10,03,19,1.60
2018,09,10,03,20,3.20
2018,09,10,03,21,9.60
2018,09,10,03,22,9.60
2018,09,10,03,23,9.60
2018,09,10,03,24,8.10
2018,09,10,03,25,8.10
2018,09,10,03,26,4.80
2018,09,10,03,27,6.40
2018,09,10,03,28,3.20
2018,09,10,03,29,8.10
2018,09,10,03,30,16.10
2018,09,10,03,31,14.50
2018,09,10,03,32,14.50
2018,09,10,03,33,11.30
2018,09,10,03,34,16.10
2018,09,10,03,35,14.50
2018,09,10,03,36,8.10
2018,09,10,03,37,9.60
2018,09,10,03,38,6.40
2018,09,10,03,39,8.10
2018,09,10,03,40,6.40
2018,09,10,03,41,11.30
2018,09,10,03,42,16.10
2018,09,10,03,43,9.60
2018,09,10,03,44,12.90
2018,09,10,03,45,12.90
2018,09,10,03,46,6.40
2018,09,10,03,47,6.40
2018,09,10,03,48,11.30
2018,09,10,03,49,12.90
2018,09,10,03,50,4.80
2018,09,10,03,51,11.30
2018,09,10,03,52,11.30
2018,09,10,03,53,4.80
2018,09,10,03,54,6.40
2018,09,10,03,55,8.10
2018,09,10,03,56,4.80
2018,09,10,03,57,1.60
2018,09,10,03,58,3.20
2018,09,10,03,59,4.80
2018,09,10,04,00,3.20
2018,09,10,04,03,3.20
2018,09,10,04,04,1.60
2018,09,10,04,12,3.20
2018,09,10,04,13,3.20
2018,09,10,04,14,1.60
2018,09,10,04,15,6.40
2018,09,10,04,16,6.40
2018,09,10,04,17,3.20
2018,09,10,04,18,6.40
2018,09,10,04,19,3.20
2018,09,10,04,20,3.20
2018,09,10,04,21,9.60
2018,09,10,04,22,9.60
2018,09,10,04,23,9.60
2018,09,10,04,24,6.40
2018,09,10,04,25,8.10
2018,09,10,04,26,4.80
2018,09,10,04,27,11.30
2018,09,10,04,28,11.30
2018,09,10,04,29,8.10
2018,09,10,04,30,3.20
2018,09,10,04,31,3.20
2018,09,10,04,32,4.80
2018,09,10,04,33,3.20
2018,09,10,04,34,4.80
2018,09,10,04,35,1.60
2018,09,10,04,36,4.80
2018,09,10,04,37,1.60
2018,09,10,04,41,4.80
2018,09,10,04,42,4.80
2018,09,10,04,43,4.80
2018,09,10,04,44,1.60
2018,09,10,04,45,6.40
2018,09,10,04,46,6.40
2018,09,10,04,47,3.20
2018,09,10,04,48,3.20
2018,09,10,04,49,11.30
2018,09,10,04,50,4.80
2018,09,10,04,51,4.80
2018,09,10,04,52,4.80
2018,09,10,04,53,8.10
2018,09,10,04,54,8.10
2018,09,10,04,55,8.10
2018,09,10,04,56,8.10
2018,09,10,04,57,8.10
2018,09,10,04,58,6.40
2018,09,10,04,59,6.40
2018,09,10,05,00,4.80
2018,09,10,05,01,6.40
2018,09,10,05,02,6.40
2018,09,10,05,03,6.40
2018,09,10,05,04,4.80
2018,09,10,05,05,3.20
2018,09,10,05,06,3.20
2018,09,10,05,07,9.60
2018,09,10,05,08,8.10
2018,09,10,05,09,8.10
2018,09,10,05,10,11.30
2018,09,10,05,11,6.40
2018,09,10,05,12,3.20
2018,09,10,05,13,4.80
2018,09,10,05,14,8.10
2018,09,10,05,15,9.60
2018,09,10,05,16,9.60
2018,09,10,05,17,1.60
2018,09,10,05,18,1.60
2018,09,10,05,19,8.10
2018,09,10,05,20,3.20
2018,09,10,05,21,8.10
2018,09,10,05,22,4.80
2018,09,10,05,23,3.20
2018,09,10,05,24,3.20
2018,09,10,05,25,3.20
2018,09,10,05,26,1.60
2018,09,10,05,27,4.80
2018,09,10,05,28,4.80
2018,09,10,05,29,3.20
2018,09,10,05,31,1.60
2018,09,10,05,33,1.60
2018,09,10,05,34,3.20
2018,09,10,05,35,4.80
2018,09,10,05,36,4.80
2018,09,10,05,37,6.40
2018,09,10,05,38,6.40
2018,09,10,05,39,3.20
2018,09,10,05,40,8.10
2018,09,10,05,41,6.40
2018,09,10,05,42,4.80
2018,09,10,05,43,6.40
2018,09,10,05,44,4.80
2018,09,10,05,45,4.80
2018,09,10,05,46,4.80
2018,09,10,05,47,4.80
2018,09,10,05,48,4.80
2018,09,10,05,49,3.20
2018,09,10,05,50,4.80
2018,09,10,05,51,4.80
2018,09,10,05,52,4.80
2018,09,10,05,53,4.80
2018,09,10,05,54,1.60
2018,09,10,05,55,3.20
2018,09,10,05,56,11.30
2018,09,10,05,57,11.30
2018,09,10,05,58,9.60
2018,09,10,05,59,8.10
2018,09,10,06,00,8.10
2018,09,10,06,01,11.30
2018,09,10,06,02,8.10
2018,09,10,06,03,8.10
2018,09,10,06,04,11.30
2018,09,10,06,05,8.10
2018,09,10,06,06,8.10
2018,09,10,06,07,9.60
2018,09,10,06,08,8.10
2018,09,10,06,09,3.20
2018,09,10,06,10,3.20
2018,09,10,06,14,1.60
2018,09,10,06,15,6.40
2018,09,10,06,16,3.20
2018,09,10,06,17,3.20
2018,09,10,06,18,6.40
2018,09,10,06,19,3.20
2018,09,10,06,20,3.20
2018,09,10,06,21,6.40
2018,09,10,06,22,3.20
2018,09,10,06,23,3.20
2018,09,10,06,24,3.20
2018,09,10,06,25,3.20
2018,09,10,06,26,3.20
2018,09,10,06,27,4.80
2018,09,10,06,28,3.20
2018,09,10,06,29,1.60
2018,09,10,06,36,1.60
2018,09,10,06,37,1.60
2018,09,10,06,38,1.60
2018,09,10,06,40,1.60
2018,09,10,06,41,1.60
2018,09,10,06,42,1.60
2018,09,10,06,43,3.20
2018,09,10,06,44,3.20
2018,09,10,06,45,3.20
2018,09,10,06,46,3.20
2018,09,10,06,47,3.20
2018,09,10,06,48,3.20
2018,09,10,06,49,1.60
2018,09,10,06,50,4.80
2018,09,10,06,51,4.80
2018,09,10,06,52,4.80
2018,09,10,06,53,3.20
2018,09,10,06,54,3.20
2018,09,10,06,55,4.80
2018,09,10,06,56,4.80
2018,09,10,06,57,3.20
2018,09,10,06,58,3.20
2018,09,10,06,59,3.20
2018,09,10,07,00,1.60
2018,09,10,07,01,1.60
2018,09,10,07,02,1.60
2018,09,10,07,03,3.20
2018,09,10,07,04,6.40
2018,09,10,07,05,4.80
2018,09,10,07,06,3.20
2018,09,10,07,07,1.60
2018,09,10,07,09,1.60
2018,09,10,07,10,1.60
2018,09,10,07,15,1.60
2018,09,10,07,16,3.20
2018,09,10,07,17,3.20
2018,09,10,07,18,3.20
2018,09,10,07,19,4.80
2018,09,10,07,20,8.10
2018,09,10,07,21,4.80
2018,09,10,07,22,11.30
2018,09,10,07,23,8.10
2018,09,10,07,24,6.40
2018,09,10,07,25,4.80
2018,09,10,07,26,8.10
2018,09,10,07,27,4.80
2018,09,10,07,28,4.80
2018,09,10,07,29,4.80
2018,09,10,07,30,4.80
2018,09,10,07,31,12.90
2018,09,10,07,32,9.60
2018,09,10,07,33,9.60
2018,09,10,07,34,14.50
2018,09,10,07,35,9.60
2018,09,10,07,36,14.50
2018,09,10,07,37,12.90
2018,09,10,07,38,9.60
2018,09,10,07,39,17.70
2018,09,10,07,40,12.90
2018,09,10,07,41,16.10
2018,09,10,07,42,12.90
2018,09,10,07,43,16.10
2018,09,10,07,44,12.90
2018,09,10,07,45,16.10
2018,09,10,07,46,14.50
2018,09,10,07,47,19.30
2018,09,10,07,48,17.70
2018,09,10,07,49,17.70
2018,09,10,07,50,8.10
2018,09,10,07,51,14.50
2018,09,10,07,52,14.50
2018,09,10,07,53,14.50
2018,09,10,07,54,12.90
2018,09,10,07,55,14.50
2018,09,10,07,56,11.30
2018,09,10,07,57,17.70
2018,09,10,07,58,17.70
2018,09,10,07,59,12.90
2018,09,10,08,00,8.10
2018,09,10,08,01,17.70
2018,09,10,08,02,29.00
2018,09,10,08,03,20.90
2018,09,10,08,04,22.50
2018,09,10,08,05,32.20
2018,09,10,08,06,25.70
2018,09,10,08,07,24.20
2018,09,10,08,08,19.30
2018,09,10,08,09,17.70
2018,09,10,08,10,16.10
2018,09,10,08,11,16.10
2018,09,10,08,12,12.90
2018,09,10,08,13,14.50
2018,09,10,08,14,14.50
2018,09,10,08,15,11.30
2018,09,10,08,16,29.00
2018,09,10,08,17,17.70
2018,09,10,08,18,6.40
2018,09,10,08,19,11.30
2018,09,10,08,20,14.50
2018,09,10,08,21,19.30
2018,09,10,08,22,11.30
2018,09,10,08,23,19.30
2018,09,10,08,24,19.30
2018,09,10,08,25,17.70
2018,09,10,08,26,14.50
2018,09,10,08,27,19.30
2018,09,10,08,28,16.10
2018,09,10,08,29,9.60
2018,09,10,08,30,14.50
2018,09,10,08,31,14.50
2018,09,10,08,32,14.50
2018,09,10,08,33,16.10
2018,09,10,08,34,19.30
2018,09,10,08,35,8.10
2018,09,10,08,36,12.90
2018,09,10,08,37,12.90
2018,09,10,08,38,9.60
2018,09,10,08,39,12.90
2018,09,10,08,40,12.90
2018,09,10,08,41,22.50
2018,09,10,08,42,19.30
2018,09,10,08,43,29.00
2018,09,10,08,44,29.00
2018,09,10,08,45,11.30
2018,09,10,08,46,17.70
2018,09,10,08,47,14.50
2018,09,10,08,48,11.30
2018,09,10,08,49,22.50
2018,09,10,08,50,22.50
2018,09,10,08,51,16.10
2018,09,10,08,52,11.30
2018,09,10,08,53,14.50
2018,09,10,08,54,8.10
2018,09,10,08,55,16.10
2018,09,10,08,56,24.20
2018,09,10,08,57,14.50
2018,09,10,08,58,12.90
2018,09,10,08,59,14.50
2018,09,10,09,00,12.90
2018,09,10,09,01,16.10
2018,09,10,09,02,14.50
2018,09,10,09,03,16.10
2018,09,10,09,04,9.60
2018,09,10,09,05,17.70
2018,09,10,09,06,16.10
2018,09,10,09,07,14.50
2018,09,10,09,08,11.30
2018,09,10,09,09,12.90
2018,09,10,09,10,16.10
2018,09,10,09,11,19.30
2018,09,10,09,12,17.70
2018,09,10,09,13,19.30
2018,09,10,09,14,19.30
2018,09,10,09,15,19.30
2018,09,10,09,16,22.50
2018,09,10,09,17,19.30
2018,09,10,09,18,19.30
2018,09,10,09,19,24.20
2018,09,10,09,20,19.30
2018,09,10,09,21,19.30
2018,09,10,09,22,30.60
2018,09,10,09,23,27.40
2018,09,10,09,24,17.70
2018,09,10,09,25,22.50
2018,09,10,09,26,19.30
2018,09,10,09,27,20.90
2018,09,10,09,28,22.50
2018,09,10,09,29,25.70
2018,09,10,09,30,30.60
2018,09,10,09,31,25.70
2018,09,10,09,32,29.00
2018,09,10,09,33,25.70
2018,09,10,09,34,25.70
2018,09,10,09,35,20.90
2018,09,10,09,36,30.60
2018,09,10,09,37,29.00
2018,09,10,09,38,33.80
2018,09,10,09,39,27.40
2018,09,10,09,40,29.00
2018,09,10,09,41,29.00
2018,09,10,09,42,30.60
2018,09,10,09,43,25.70
2018,09,10,09,44,22.50
2018,09,10,09,45,20.90
2018,09,10,09,46,17.70
2018,09,10,09,47,30.60
2018,09,10,09,48,29.00
2018,09,10,09,49,29.00
2018,09,10,09,50,20.90
2018,09,10,09,51,25.70
2018,09,10,09,52,16.10
2018,09,10,09,53,25.70
2018,09,10,09,54,22.50
2018,09,10,09,55,20.90
2018,09,10,09,56,27.40
2018,09,10,09,57,16.10
2018,09,10,09,58,19.30
2018,09,10,09,59,22.50
2018,09,10,10,00,16.10
2018,09,10,10,01,19.30
2018,09,10,10,02,17.70
2018,09,10,10,03,30.60
2018,09,10,10,04,19.30
2018,09,10,10,05,20.90
2018,09,10,10,06,16.10
2018,09,10,10,07,9.60
2018,09,10,10,08,33.80
2018,09,10,10,09,29.00
2018,09,10,10,10,22.50
2018,09,10,10,11,22.50
2018,09,10,10,12,25.70
2018,09,10,10,13,16.10
2018,09,10,10,14,16.10
2018,09,10,10,15,22.50
2018,09,10,10,16,19.30
2018,09,10,10,17,16.10
2018,09,10,10,18,17.70
2018,09,10,10,19,19.30
2018,09,10,10,20,24.20
2018,09,10,10,21,24.20
2018,09,10,10,22,20.90
2018,09,10,10,23,20.90
2018,09,10,10,24,25.70
2018,09,10,10,25,17.70
2018,09,10,10,26,16.10
2018,09,10,10,27,19.30
2018,09,10,10,28,20.90
2018,09,10,10,29,20.90
2018,09,10,10,30,22.50
2018,09,10,10,31,27.40
2018,09,10,10,32,27.40
2018,09,10,10,33,17.70
2018,09,10,10,34,19.30
2018,09,10,10,35,17.70
2018,09,10,10,36,14.50
2018,09,10,10,37,9.60
2018,09,10,10,38,11.30
2018,09,10,10,39,16.10
2018,09,10,10,40,22.50
2018,09,10,10,41,17.70
2018,09,10,10,42,17.70
2018,09,10,10,43,9.60
2018,09,10,10,44,22.50
2018,09,10,10,45,19.30
2018,09,10,10,46,12.90
2018,09,10,10,47,24.20
2018,09,10,10,48,16.10
2018,09,10,10,49,19.30
2018,09,10,10,50,16.10
2018,09,10,10,51,14.50
2018,09,10,10,52,12.90
2018,09,10,10,53,17.70
2018,09,10,10,54,12.90
2018,09,10,10,55,12.90
2018,09,10,10,56,17.70
2018,09,10,10,57,16.10
2018,09,10,10,58,20.90
2018,09,10,10,59,6.40
2018,09,10,11,00,9.60
2018,09,10,11,01,17.70
2018,09,10,11,02,22.50
2018,09,10,11,03,17.70
2018,09,10,11,04,11.30
2018,09,10,11,05,12.90
2018,09,10,11,06,19.30
2018,09,10,11,07,16.10
2018,09,10,11,08,11.30
2018,09,10,11,09,14.50
2018,09,10,11,10,16.10
2018,09,10,11,11,14.50
2018,09,10,11,12,14.50
2018,09,10,11,13,16.10
2018,09,10,11,14,20.90
2018,09,10,11,15,16.10
2018,09,10,11,16,12.90
2018,09,10,11,17,17.70
2018,09,10,11,18,22.50
2018,09,10,11,19,17.70
2018,09,10,11,20,20.90
2018,09,10,11,21,25.70
2018,09,10,11,22,20.90
2018,09,10,11,23,22.50
2018,09,10,11,24,17.70
2018,09,10,11,25,20.90
2018,09,10,11,26,12.90
2018,09,10,11,27,19.30
2018,09,10,11,28,12.90
2018,09,10,11,29,12.90
2018,09,10,11,30,17.70
2018,09,10,11,31,19.30
2018,09,10,11,32,6.40
2018,09,10,11,33,17.70
2018,09,10,11,34,17.70
2018,09,10,11,35,22.50
2018,09,10,11,36,25.70
2018,09,10,11,37,20.90
2018,09,10,11,38,25.70
2018,09,10,11,39,24.20
2018,09,10,11,40,25.70
2018,09,10,11,41,22.50
2018,09,10,11,42,14.50
2018,09,10,11,43,19.30
2018,09,10,11,44,22.50
2018,09,10,11,45,25.70
2018,09,10,11,46,25.70
2018,09,10,11,47,37.00
2018,09,10,11,48,17.70
2018,09,10,11,49,33.80
2018,09,10,11,50,17.70
2018,09,10,11,51,20.90
2018,09,10,11,52,24.20
2018,09,10,11,53,24.20
2018,09,10,11,54,30.60
2018,09,10,11,55,29.00
2018,09,10,11,56,35.40
2018,09,10,11,57,17.70
2018,09,10,11,58,24.20
2018,09,10,11,59,14.50
2018,09,10,12,00,14.50
2018,09,10,12,01,29.00
2018,09,10,12,02,24.20
2018,09,10,12,03,22.50
2018,09,10,12,04,37.00
2018,09,10,12,05,33.80
2018,09,10,12,06,29.00
2018,09,10,12,07,25.70
2018,09,10,12,08,27.40
2018,09,10,12,09,12.90
2018,09,10,12,10,22.50
2018,09,10,12,11,9.60
2018,09,10,12,12,24.20
2018,09,10,12,13,29.00
2018,09,10,12,14,25.70
2018,09,10,12,15,20.90
2018,09,10,12,16,19.30
2018,09,10,12,17,16.10
2018,09,10,12,18,20.90
2018,09,10,12,19,22.50
2018,09,10,12,20,19.30
2018,09,10,12,21,17.70
2018,09,10,12,22,27.40
2018,09,10,12,23,22.50
2018,09,10,12,24,27.40
2018,09,10,12,25,25.70
2018,09,10,12,26,12.90
2018,09,10,12,27,17.70
2018,09,10,12,28,20.90
2018,09,10,12,29,19.30
2018,09,10,12,30,22.50
2018,09,10,12,31,19.30
2018,09,10,12,32,17.70
2018,09,10,12,33,17.70
2018,09,10,12,34,19.30
2018,09,10,12,35,16.10
2018,09,10,12,36,19.30
2018,09,10,12,37,17.70
2018,09,10,12,38,22.50
2018,09,10,12,39,17.70
2018,09,10,12,40,25.70
2018,09,10,12,41,24.20
2018,09,10,12,42,20.90
2018,09,10,12,43,22.50
2018,09,10,12,44,22.50
2018,09,10,12,45,17.70
2018,09,10,12,46,20.90
2018,09,10,12,47,16.10
2018,09,10,12,48,16.10
2018,09,10,12,49,24.20
2018,09,10,12,50,20.90
2018,09,10,12,51,17.70
2018,09,10,12,52,16.10
2018,09,10,12,53,16.10
2018,09,10,12,54,12.90
2018,09,10,12,55,4.80
2018,09,10,12,56,17.70
2018,09,10,12,57,11.30
2018,09,10,12,58,17.70
2018,09,10,12,59,24.20
2018,09,10,13,00,19.30
2018,09,10,13,01,11.30
2018,09,10,13,02,14.50
2018,09,10,13,03,19.30
2018,09,10,13,04,19.30
2018,09,10,13,05,19.30
2018,09,10,13,06,11.30
2018,09,10,13,07,14.50
2018,09,10,13,08,14.50
2018,09,10,13,09,16.10
2018,09,10,13,10,9.60
2018,09,10,13,11,14.50
2018,09,10,13,12,11.30
2018,09,10,13,13,17.70
2018,09,10,13,14,14.50
2018,09,10,13,15,12.90
2018,09,10,13,16,14.50
2018,09,10,13,17,11.30
2018,09,10,13,18,8.10
2018,09,10,13,19,9.60
2018,09,10,13,20,14.50
2018,09,10,13,21,14.50
2018,09,10,13,22,6.40
2018,09,10,13,23,8.10
2018,09,10,13,24,8.10
2018,09,10,13,25,4.80
2018,09,10,13,26,1.60
2018,09,10,13,27,6.40
2018,09,10,13,28,8.10
2018,09,10,13,29,9.60
2018,09,10,13,30,12.90
2018,09,10,13,31,12.90
2018,09,10,13,32,11.30
2018,09,10,13,33,16.10
2018,09,10,13,34,11.30
2018,09,10,13,35,12.90
2018,09,10,13,36,12.90
2018,09,10,13,37,12.90
2018,09,10,13,38,16.10
2018,09,10,13,39,17.70
2018,09,10,13,40,19.30
2018,09,10,13,41,24.20
2018,09,10,13,42,20.90
2018,09,10,13,43,22.50
2018,09,10,13,44,22.50
2018,09,10,13,45,17.70
2018,09,10,13,46,17.70
2018,09,10,13,47,17.70
2018,09,10,13,48,17.70
2018,09,10,13,49,22.50
2018,09,10,13,50,12.90
2018,09,10,13,51,9.60
2018,09,10,13,52,16.10
2018,09,10,13,53,16.10
2018,09,10,13,54,9.60
2018,09,10,13,55,6.40
2018,09,10,13,56,12.90
2018,09,10,13,57,14.50
2018,09,10,13,58,16.10
2018,09,10,13,59,19.30
2018,09,10,14,00,16.10
2018,09,10,14,01,24.20
2018,09,10,14,02,19.30
2018,09,10,14,03,11.30
2018,09,10,14,04,12.90
2018,09,10,14,05,12.90
2018,09,10,14,06,11.30
2018,09,10,14,07,12.90
2018,09,10,14,08,16.10
2018,09,10,14,09,19.30
2018,09,10,14,10,14.50
2018,09,10,14,11,20.90
2018,09,10,14,12,16.10
2018,09,10,14,13,8.10
2018,09,10,14,14,16.10
2018,09,10,14,15,16.10
2018,09,10,14,16,19.30
2018,09,10,14,17,17.70
2018,09,10,14,18,14.50
2018,09,10,14,19,24.20
2018,09,10,14,20,24.20
2018,09,10,14,21,12.90
2018,09,10,14,22,16.10
2018,09,10,14,23,12.90
2018,09,10,14,24,17.70
2018,09,10,14,25,17.70
2018,09,10,14,26,16.10
2018,09,10,14,27,16.10
2018,09,10,14,28,8.10
2018,09,10,14,29,12.90
2018,09,10,14,30,22.50
2018,09,10,14,31,22.50
2018,09,10,14,32,25.70
2018,09,10,14,33,17.70
2018,09,10,14,34,11.30
2018,09,10,14,35,20.90
2018,09,10,14,36,24.20
2018,09,10,14,37,16.10
2018,09,10,14,38,14.50
2018,09,10,14,39,19.30
2018,09,10,14,40,17.70
2018,09,10,14,41,9.60
2018,09,10,14,42,11.30
2018,09,10,14,43,9.60
2018,09,10,14,44,16.10
2018,09,10,14,45,11.30
2018,09,10,14,46,20.90
2018,09,10,14,47,16.10
2018,09,10,14,48,14.50
2018,09,10,14,49,11.30
2018,09,10,14,50,11.30
2018,09,10,14,51,11.30
2018,09,10,14,52,11.30
2018,09,10,14,53,14.50
2018,09,10,14,54,14.50
2018,09,10,14,55,14.50
2018,09,10,14,56,22.50
2018,09,10,14,57,25.70
2018,09,10,14,58,22.50
2018,09,10,14,59,20.90
2018,09,10,15,00,12.90
2018,09,10,15,01,16.10
2018,09,10,15,02,12.90
2018,09,10,15,03,9.60
2018,09,10,15,04,17.70
2018,09,10,15,05,16.10
2018,09,10,15,06,6.40
2018,09,10,15,07,12.90
2018,09,10,15,08,9.60
2018,09,10,15,09,12.90
2018,09,10,15,10,11.30
2018,09,10,15,11,16.10
2018,09,10,15,12,8.10
2018,09,10,15,13,20.90
2018,09,10,15,14,22.50
2018,09,10,15,15,16.10
2018,09,10,15,16,20.90
2018,09,10,15,17,22.50
2018,09,10,15,18,9.60
2018,09,10,15,19,12.90
2018,09,10,15,20,24.20
2018,09,10,15,21,22.50
2018,09,10,15,22,20.90
2018,09,10,15,23,9.60
2018,09,10,15,24,12.90
2018,09,10,15,25,11.30
2018,09,10,15,26,16.10
2018,09,10,15,27,9.60
2018,09,10,15,28,16.10
2018,09,10,15,29,12.90
2018,09,10,15,30,12.90
2018,09,10,15,31,12.90
2018,09,10,15,32,16.10
2018,09,10,15,33,16.10
2018,09,10,15,34,3.20
2018,09,10,15,35,6.40
2018,09,10,15,36,12.90
2018,09,10,15,37,8.10
2018,09,10,15,38,6.40
2018,09,10,15,39,12.90
2018,09,10,15,40,8.10
2018,09,10,15,41,8.10
2018,09,10,15,42,12.90
2018,09,10,15,43,12.90
2018,09,10,15,44,12.90
2018,09,10,15,45,9.60
2018,09,10,15,46,11.30
2018,09,10,15,47,12.90
2018,09,10,15,48,9.60
2018,09,10,15,49,8.10
2018,09,10,15,50,14.50
2018,09,10,15,51,11.30
2018,09,10,15,52,14.50
2018,09,10,15,53,17.70
2018,09,10,15,54,20.90
2018,09,10,15,55,27.40
2018,09,10,15,56,24.20
2018,09,10,15,57,8.10
2018,09,10,15,58,16.10
2018,09,10,15,59,19.30
2018,09,10,16,00,32.20
2018,09,10,16,01,22.50
2018,09,10,16,02,29.00
2018,09,10,16,03,27.40
2018,09,10,16,04,17.70
2018,09,10,16,05,16.10
2018,09,10,16,06,24.20
2018,09,10,16,07,19.30
2018,09,10,16,08,19.30
2018,09,10,16,09,8.10
2018,09,10,16,10,17.70
2018,09,10,16,11,17.70
2018,09,10,16,12,19.30
2018,09,10,16,13,9.60
2018,09,10,16,14,11.30
2018,09,10,16,15,12.90
2018,09,10,16,16,14.50
2018,09,10,16,17,17.70
2018,09,10,16,18,9.60
2018,09,10,16,19,14.50
2018,09,10,16,20,16.10
2018,09,10,16,21,9.60
2018,09,10,16,22,14.50
2018,09,10,16,23,19.30
2018,09,10,16,24,14.50
2018,09,10,16,25,14.50
2018,09,10,16,26,11.30
2018,09,10,16,27,9.60
2018,09,10,16,28,11.30
2018,09,10,16,29,9.60
2018,09,10,16,30,8.10
2018,09,10,16,31,8.10
2018,09,10,16,32,9.60
2018,09,10,16,33,9.60
2018,09,10,16,34,6.40
2018,09,10,16,35,19.30
2018,09,10,16,36,17.70
2018,09,10,16,37,14.50
2018,09,10,16,38,12.90
2018,09,10,16,39,11.30
2018,09,10,16,40,9.60
2018,09,10,16,41,14.50
2018,09,10,16,42,9.60
2018,09,10,16,43,16.10
2018,09,10,16,44,12.90
2018,09,10,16,45,8.10
2018,09,10,16,46,14.50
2018,09,10,16,47,12.90
2018,09,10,16,48,16.10
2018,09,10,16,49,11.30
2018,09,10,16,50,12.90
2018,09,10,16,51,11.30
2018,09,10,16,52,12.90
2018,09,10,16,53,11.30
2018,09,10,16,54,6.40
2018,09,10,16,55,16.10
2018,09,10,16,56,16.10
2018,09,10,16,57,17.70
2018,09,10,16,58,20.90
2018,09,10,16,59,12.90
2018,09,10,17,00,16.10
2018,09,10,17,01,11.30
2018,09,10,17,02,12.90
2018,09,10,17,03,11.30
2018,09,10,17,04,17.70
2018,09,10,17,05,8.10
2018,09,10,17,06,14.50
2018,09,10,17,07,19.30
2018,09,10,17,08,16.10
2018,09,10,17,09,12.90
2018,09,10,17,10,20.90
2018,09,10,17,11,22.50
2018,09,10,17,12,24.20
2018,09,10,17,13,17.70
2018,09,10,17,14,17.70
2018,09,10,17,15,19.30
2018,09,10,17,16,17.70
2018,09,10,17,17,17.70
2018,09,10,17,18,12.90
2018,09,10,17,19,11.30
2018,09,10,17,20,8.10
2018,09,10,17,21,8.10
2018,09,10,17,22,12.90
2018,09,10,17,23,14.50
2018,09,10,17,24,12.90
2018,09,10,17,25,20.90
2018,09,10,17,26,12.90
2018,09,10,17,27,12.90
2018,09,10,17,28,17.70
2018,09,10,17,29,16.10
2018,09,10,17,30,8.10
2018,09,10,17,31,20.90
2018,09,10,17,32,20.90
2018,09,10,17,33,9.60
2018,09,10,17,34,11.30
2018,09,10,17,35,11.30
2018,09,10,17,36,11.30
2018,09,10,17,37,11.30
2018,09,10,17,38,14.50
2018,09,10,17,39,11.30
2018,09,10,17,40,12.90
2018,09,10,17,41,11.30
2018,09,10,17,42,14.50
2018,09,10,17,43,16.10
2018,09,10,17,44,12.90
2018,09,10,17,45,14.50
2018,09,10,17,46,14.50
2018,09,10,17,47,14.50
2018,09,10,17,48,16.10
2018,09,10,17,49,11.30
2018,09,10,17,50,6.40
2018,09,10,17,51,17.70
2018,09,10,17,52,14.50
2018,09,10,17,53,8.10
2018,09,10,17,54,4.80
2018,09,10,17,55,12.90
2018,09,10,17,56,11.30
2018,09,10,17,57,14.50
2018,09,10,17,58,16.10
2018,09,10,17,59,14.50
2018,09,10,18,00,11.30
2018,09,10,18,01,14.50
2018,09,10,18,02,14.50
2018,09,10,18,03,16.10
2018,09,10,18,04,12.90
2018,09,10,18,05,9.60
2018,09,10,18,06,12.90
2018,09,10,18,07,14.50
2018,09,10,18,08,16.10
2018,09,10,18,09,11.30
2018,09,10,18,10,11.30
2018,09,10,18,11,11.30
2018,09,10,18,12,9.60
2018,09,10,18,13,6.40
2018,09,10,18,14,11.30
2018,09,10,18,15,11.30
2018,09,10,18,16,6.40
2018,09,10,18,17,17.70